Wind_Speed
91 93 93 92 90 86 81 79 81 84 87 89 91 91 92 92 89 83 77 73 70 67 65 62 57 55 54 51 43 36 31 24 19 14 9 7 7 8 9 11 14 16 20 25 30 34 39 44 48 52 56 61 66 70 73 75 76 77 79 83 87 88 89 88 87 84 83 84 84 83 82 83 83 81 78 75 71 68 64 62 61 60 57 53 50 47 46
91 92 92 91 89 86 81 78 78 80 83 87 89 91 91 91 90 85 78 73 70 67 65 62 57 54 54 53 46 38 32 25 20 15 10 8 9 11 13 13 14 16 18 23 28 33 37 43 48 51 55 60 64 68 71 73 75 77 79 81 83 84 85 86 86 86 87 87 86 85 84 84 82 80 77 73 69 66 64 63 62 59 56 52 49 47 46
90 91 91 90 88 85 80 77 76 78 80 83 86 89 90 91 90 86 79 73 70 67 64 61 57 52 52 53 48 40 33 27 21 17 12 10 10 12 15 17 17 17 18 21 26 31 36 42 46 50 52 56 60 64 67 70 74 76 78 79 81 83 85 85 86 87 85 83 82 80 80 79 78 76 73 70 68 65 63 63 60 57 54 51 49 48 47
90 90 90 89 87 84 80 76 75 76 78 80 82 85 88 89 90 88 81 74 69 66 63 60 57 52 51 52 49 41 34 27 21 17 14 13 12 11 13 17 20 21 22 23 25 28 34 39 44 47 49 52 56 61 66 70 73 75 77 78 79 81 82 84 85 83 80 77 76 75 74 73 73 71 69 68 66 64 62 61 57 55 53 51 49 48 47
89 89 90 89 86 82 78 75 74 75 77 79 80 82 85 87 88 86 81 73 68 65 62 59 57 53 50 51 49 43 35 28 23 18 15 14 14 11 10 14 19 22 24 26 27 28 32 36 40 44 45 48 54 61 67 70 72 74 76 76 77 78 79 80 81 79 78 78 77 75 73 72 71 70 69 67 66 65 63 59 56 55 53 50 49 49 47
88 89 89 89 86 82 77 74 72 73 75 78 80 81 82 84 85 85 81 73 66 62 60 57 55 52 50 50 50 44 36 30 25 20 16 15 14 11 8 10 16 20 22 25 28 29 32 35 38 40 42 46 54 61 66 69 72 73 74 74 75 75 75 77 78 78 78 78 77 75 74 72 72 70 69 67 66 65 62 59 57 55 53 51 50 49 46
88 89 89 88 85 81 76 72 71 71 73 77 79 81 82 83 84 84 82 74 66 60 58 56 53 51 49 49 49 45 37 30 24 20 17 14 13 12 8 7 13 18 20 23 27 30 33 36 37 38 41 47 54 59 64 68 71 72 72 72 72 72 73 75 76 76 76 76 75 74 73 72 72 70 69 68 66 64 61 59 58 56 53 52 50 48 47
87 88 89 88 85 80 75 71 69 69 71 73 76 79 82 83 84 84 81 74 66 60 56 54 52 50 48 47 46 44 38 30 24 20 17 13 11 12 10 8 11 15 18 20 24 29 33 35 37 39 42 46 51 56 61 65 67 69 69 69 70 70 71 73 73 74 74 74 73 72 72 71 71 71 70 69 66 64 61 59 57 55 53 52 50 48 48
87 88 88 87 84 79 74 70 68 68 69 71 73 76 79 81 82 83 81 75 66 59 55 52 49 48 46 44 44 42 37 29 23 19 16 13 10 10 11 11 12 14 16 19 22 27 32 37 39 41 43 45 49 53 58 62 64 65 66 68 68 69 71 72 72 72 73 73 72 72 70 70 71 71 70 68 65 62 59 57 55 53 51 49 48 47 46
87 88 88 87 84 78 73 69 67 67 68 70 72 74 76 78 80 81 80 74 65 57 53 49 47 45 43 41 40 40 36 30 23 19 16 13 10 10 11 12 13 14 16 18 22 27 33 37 40 42 43 45 49 53 57 60 62 64 65 66 67 68 70 71 71 71 72 71 70 70 69 71 72 71 69 66 63 60 58 56 54 51 49 47 46 45 44
86 87 87 86 82 77 72 68 66 67 68 69 72 74 75 77 78 79 79 74 65 56 51 47 43 42 40 38 37 36 35 30 24 20 17 13 10 10 12 13 14 15 16 19 22 27 32 36 39 40 42 45 49 53 56 59 61 63 65 65 66 67 68 70 71 71 70 70 69 68 70 71 71 69 66 63 60 59 57 56 54 51 49 48 46 45 44
86 87 86 85 81 75 70 67 65 66 67 69 71 73 75 76 77 78 78 73 63 54 49 44 41 38 37 36 34 33 32 29 23 19 17 14 10 12 13 14 15 16 17 20 24 27 31 36 39 40 42 44 48 52 56 58 60 62 63 64 65 66 67 69 70 70 69 69 68 68 68 68 67 65 63 61 59 58 57 55 54 52 50 49 48 46 45
86 86 85 83 79 74 68 65 64 65 66 68 70 72 74 76 76 77 77 72 62 53 47 42 39 35 33 33 32 30 29 28 24 18 15 12 11 14 16 16 16 17 18 20 24 27 30 33 36 38 40 42 46 50 54 57 59 61 62 63 64 66 67 68 69 69 69 68 67 67 67 65 64 62 60 59 58 58 57 56 54 52 51 49 47 46 45
86 85 84 81 77 71 67 64 64 64 65 67 69 71 73 75 75 76 75 70 61 52 45 40 36 33 31 29 29 28 27 27 24 19 13 11 12 14 17 18 19 19 19 20 22 24 27 30 32 34 37 39 43 47 51 55 59 61 62 63 65 66 67 67 68 69 68 67 67 66 65 64 64 62 60 60 60 59 58 56 54 52 50 48 45 44 44
85 84 82 79 75 70 65 63 63 63 65 66 68 70 73 74 74 75 74 68 59 50 43 38 33 30 28 26 25 25 25 24 23 20 13 10 11 13 16 19 21 21 21 21 21 22 24 26 29 31 34 36 39 43 47 51 56 59 61 64 65 66 66 67 68 69 68 68 67 66 65 64 64 63 62 61 60 58 57 56 54 52 50 47 44 43 43
85 84 81 77 73 68 64 62 62 63 64 66 68 70 72 74 74 74 73 67 57 48 42 36 32 28 26 24 22 22 22 21 20 18 14 9 10 11 13 16 20 22 22 21 21 21 23 24 25 28 31 34 36 38 42 47 51 55 59 63 65 65 65 66 67 68 68 68 67 66 65 65 63 63 62 61 60 58 58 56 54 52 50 49 46 44 43
85 83 79 75 71 66 63 61 61 63 64 66 67 69 71 73 74 73 71 65 56 47 40 35 31 26 23 22 20 18 19 19 18 16 13 10 7 10 11 13 17 21 22 22 22 22 22 22 22 25 29 31 33 34 36 41 47 52 57 61 63 64 65 66 67 67 68 68 67 67 66 65 64 63 63 61 60 58 57 55 52 50 49 48 47 46 45
85 82 78 73 69 65 62 61 60 62 64 66 68 69 70 72 73 73 70 63 54 46 39 33 29 25 21 19 19 16 15 16 16 14 12 10 6 7 10 12 15 19 20 21 21 22 22 23 23 24 25 27 28 30 31 34 40 47 53 58 61 62 63 64 65 65 66 67 67 67 66 65 65 64 63 61 60 58 56 54 51 49 48 48 47 47 46
85 82 76 71 67 63 61 60 60 62 64 66 68 69 71 71 71 72 69 61 51 45 39 31 27 23 19 17 17 15 12 11 13 12 10 9 6 3 7 10 14 18 19 20 21 21 22 23 24 24 25 26 27 29 30 31 33 38 44 50 55 57 59 61 61 61 63 65 66 66 66 66 65 64 63 61 59 57 56 54 52 49 48 48 48 48 46
86 81 75 69 65 63 61 61 60 61 63 66 69 70 71 71 71 70 67 59 50 44 38 31 25 22 18 15 13 13 11 9 8 9 8 7 5 3 1 7 12 18 20 20 20 21 22 23 24 24 25 25 26 28 29 30 30 32 35 39 43 46 49 53 55 58 60 63 64 65 65 65 65 64 62 61 59 57 56 54 51 49 49 49 49 48 46
87 82 74 68 64 62 61 61 61 62 63 66 69 70 71 72 71 69 65 57 48 42 37 30 24 20 18 15 11 10 10 7 5 5 5 4 3 4 4 3 7 14 20 21 20 20 21 23 24 25 25 25 24 25 26 26 26 27 29 31 32 34 36 40 45 52 58 61 63 63 64 64 64 63 62 61 59 57 55 53 50 49 50 50 49 48 47
88 82 73 67 63 62 62 62 62 63 64 66 68 71 71 71 71 68 62 54 47 42 37 31 24 20 17 15 12 9 8 7 4 3 3 1 1 3 4 5 6 9 16 22 23 21 22 24 25 25 25 25 24 23 23 23 24 24 25 27 28 28 29 32 36 44 52 58 61 61 61 61 60 60 59 58 57 55 54 51 49 49 50 50 49 48 49
90 83 73 66 63 62 62 63 63 64 65 66 68 70 71 71 70 66 60 51 45 41 37 31 24 20 17 15 13 11 9 7 6 6 5 4 4 5 5 5 5 7 12 19 24 24 23 24 26 27 25 23 23 22 22 22 23 23 24 25 26 28 30 31 33 38 46 53 56 57 57 57 57 56 56 55 54 53 52 50 49 49 50 50 49 49 50
91 84 73 66 64 63 63 63 64 65 66 67 68 70 71 71 69 65 57 48 43 40 37 32 25 20 17 15 14 13 12 10 9 8 8 8 8 8 9 9 9 8 9 14 20 24 24 23 25 28 28 26 24 23 22 22 22 23 23 24 26 28 31 33 35 38 42 47 51 53 54 54 54 54 53 53 52 51 51 50 49 49 49 49 49 50 51
92 85 74 67 65 64 64 64 65 65 67 68 68 69 70 70 68 62 54 46 42 39 37 33 26 20 18 16 15 14 15 13 11 11 11 11 11 11 11 11 12 12 12 12 15 20 23 24 24 26 28 29 28 27 26 25 25 25 25 26 27 29 31 33 36 39 42 45 47 49 50 51 51 51 51 50 50 50 49 49 49 49 49 49 49 50 50
92 84 75 68 67 66 65 65 65 65 67 68 68 68 69 69 66 59 51 44 40 39 37 34 27 21 18 17 16 15 16 16 14 13 13 15 15 14 13 13 14 15 15 14 14 15 18 21 23 24 25 28 29 30 29 28 27 27 28 29 30 30 32 34 36 39 41 44 46 47 48 48 48 47 47 47 48 48 49 49 48 48 47 47 48 48 48
92 84 75 70 68 67 66 66 65 65 66 67 67 68 68 67 63 56 49 43 39 38 37 34 29 22 18 17 17 16 17 18 18 16 15 16 18 18 16 16 16 17 17 18 17 16 16 18 20 22 23 24 26 27 28 29 29 30 30 30 31 32 33 34 36 38 40 43 44 46 46 46 45 46 46 46 47 48 48 48 48 47 47 47 47 47 48
91 83 75 71 69 68 67 66 65 65 66 66 67 67 66 64 60 53 46 41 38 37 36 34 29 23 19 17 17 17 18 19 20 19 17 17 18 19 19 19 19 20 20 21 20 20 19 19 19 20 21 21 22 23 25 27 29 29 30 30 31 32 33 35 36 37 38 40 41 42 43 43 44 44 45 45 47 47 47 48 48 48 48 48 48 48 48
89 81 75 71 70 69 67 66 65 65 65 65 66 66 64 61 56 50 44 40 37 36 36 34 29 23 19 17 16 17 19 21 22 22 21 20 20 21 21 22 22 22 23 23 23 22 22 21 20 19 19 20 21 22 24 26 27 28 29 30 31 32 34 35 36 37 38 39 40 40 41 42 43 44 44 45 46 47 48 48 49 49 49 49 49 49 49
86 79 74 71 69 68 67 66 65 65 65 64 64 63 61 57 52 47 43 39 36 35 35 33 28 23 19 16 16 18 19 21 23 24 24 23 22 23 24 25 25 25 25 25 25 25 24 24 23 22 21 21 22 23 23 24 25 27 28 30 31 32 34 35 36 37 38 39 40 41 42 43 44 44 45 46 47 48 49 49 50 50 49 49 49 49 50
82 77 73 70 68 67 66 65 65 64 64 63 62 60 57 53 48 45 41 39 36 34 33 32 28 23 19 16 16 19 20 22 24 25 25 25 25 26 27 27 27 27 27 27 27 27 27 26 26 25 24 24 23 23 24 24 25 26 27 28 30 32 34 35 37 38 39 40 41 42 43 44 45 45 45 46 47 47 48 49 49 49 49 50 50 50 50
79 75 71 69 67 66 65 64 64 64 63 62 60 57 53 48 45 42 40 39 36 33 31 30 27 23 19 16 16 18 20 21 23 25 26 27 28 28 28 28 29 30 30 30 30 29 29 29 28 28 27 27 26 25 25 26 26 27 27 28 29 31 33 34 36 37 39 40 41 42 43 44 44 45 45 46 46 47 47 48 48 49 49 49 49 49 49
76 72 69 67 66 65 64 64 63 63 61 60 58 54 49 45 42 40 40 39 36 33 30 28 26 23 19 16 15 17 19 21 23 25 27 28 29 29 29 29 30 31 32 32 32 31 30 30 31 30 30 29 29 29 29 29 29 29 29 29 30 31 32 33 34 35 36 38 39 40 41 42 43 44 45 45 46 46 47 47 47 47 47 47 47 47 47
73 70 68 66 65 64 64 63 62 61 59 57 55 51 46 42 39 39 39 38 37 33 30 27 24 21 19 17 15 15 17 21 22 24 26 29 30 31 32 31 31 32 33 33 34 34 33 33 33 32 32 32 32 32 32 33 33 33 31 31 31 31 32 32 32 33 35 36 37 38 39 40 41 41 42 43 43 44 45 45 46 46 46 46 46 46 46
70 68 66 65 64 63 63 61 60 59 57 54 52 48 44 40 38 38 38 38 37 33 29 26 23 21 19 18 16 15 17 20 22 23 26 29 31 32 33 33 33 33 33 34 35 36 36 36 35 34 34 34 34 35 35 36 35 35 34 33 33 34 33 33 32 33 34 35 36 38 38 39 39 39 40 41 42 43 44 45 45 46 46 46 46 46 46
67 66 65 63 62 61 60 59 57 56 54 52 48 45 42 39 38 37 37 38 37 34 30 27 24 21 20 19 17 16 18 20 21 23 26 29 30 32 33 35 35 35 35 34 35 36 37 37 37 37 36 36 37 38 38 38 37 37 37 36 36 37 36 36 35 35 35 36 37 38 38 39 39 39 40 41 42 43 44 45 45 45 46 46 46 46 46
64 63 62 61 59 58 57 56 54 53 52 49 45 42 40 40 39 38 37 37 36 34 30 27 24 21 21 20 18 17 19 20 21 23 25 28 30 32 33 35 36 37 37 37 36 36 36 36 37 38 38 39 40 40 40 40 39 39 39 39 39 39 39 38 38 38 38 38 39 39 40 40 40 40 40 41 42 43 44 45 45 45 46 46 47 47 47
61 59 58 57 55 54 53 53 52 51 49 46 42 39 39 39 39 38 37 36 35 33 31 27 24 22 22 20 18 18 19 20 21 23 25 27 30 32 33 34 36 37 38 39 38 37 36 35 36 37 38 40 42 42 42 41 41 41 41 42 42 42 41 41 41 41 41 42 42 42 43 43 42 42 42 42 43 43 44 44 45 45 46 47 48 48 49
57 56 55 54 52 51 50 50 49 48 46 44 41 39 38 39 39 38 36 35 34 33 31 27 24 24 23 20 18 19 20 20 21 23 24 25 29 31 32 33 35 36 38 40 39 38 38 37 36 37 38 40 41 42 42 42 42 43 43 43 43 44 44 44 44 44 45 45 45 46 45 45 45 45 45 45 45 45 45 45 46 46 47 48 49 50 51
55 53 52 51 49 48 48 47 46 45 43 42 40 39 38 38 38 37 35 33 33 33 30 27 25 25 24 21 19 20 21 20 20 22 23 24 27 30 31 33 34 35 37 39 40 40 40 40 39 39 40 40 40 40 40 40 41 42 43 44 45 45 46 46 46 47 47 47 47 47 48 48 48 48 48 48 48 48 48 48 48 48 49 50 50 51 52
53 51 50 48 47 46 45 45 44 43 42 41 40 40 38 37 37 36 35 33 32 32 31 28 26 26 25 23 21 22 22 21 21 22 23 25 26 28 31 33 34 35 37 38 39 40 41 42 42 42 43 42 40 39 39 40 40 41 42 43 44 45 46 47 48 49 49 49 49 50 50 50 50 51 51 51 50 50 51 51 51 51 51 52 53 53 54
52 50 48 47 46 45 44 43 43 42 41 40 40 39 38 36 35 35 34 33 32 31 31 29 28 28 27 24 22 22 22 22 23 25 26 25 25 27 30 33 34 35 36 37 37 38 40 42 44 45 45 44 42 41 41 41 40 40 40 41 42 43 44 45 47 48 49 50 51 52 52 52 53 53 53 53 52 52 52 53 53 54 54 55 55 56 56
52 50 48 47 46 45 44 44 43 42 41 40 40 38 37 35 35 34 33 33 32 31 31 29 28 28 28 25 22 22 22 22 24 26 26 25 26 28 30 33 34 34 35 36 36 36 38 41 43 45 46 45 44 43 43 42 42 42 42 42 42 42 42 42 43 45 46 47 49 50 51 52 53 53 54 54 54 54 54 55 55 56 56 57 57 58 58
53 51 50 48 47 46 45 44 43 42 40 39 38 37 36 35 34 33 33 33 32 31 30 29 29 29 28 24 22 23 24 24 25 26 26 26 26 28 30 31 33 34 35 35 34 34 35 38 40 43 44 44 44 43 44 44 45 46 46 45 45 44 43 42 42 43 43 44 46 47 48 48 49 50 50 51 52 53 53 54 54 55 55 55 56 56 56
53 52 51 50 49 47 46 44 42 41 39 37 37 37 36 35 34 33 33 33 32 31 30 30 29 29 27 25 23 24 24 24 25 26 26 27 28 29 30 31 33 35 36 35 33 32 33 35 37 39 40 40 40 41 43 45 46 47 47 47 47 46 45 45 44 44 44 45 45 45 45 45 45 46 46 47 48 48 49 50 50 51 51 51 52 52 52
53 52 52 50 49 48 46 43 41 39 37 36 36 36 36 35 34 33 33 33 32 31 31 30 29 29 27 26 24 24 24 24 25 25 26 28 29 30 30 31 33 35 36 35 33 31 31 33 35 36 36 35 36 38 40 42 43 44 46 47 47 48 48 48 47 48 48 48 47 46 45 45 45 45 45 45 46 46 46 47 48 48 49 49 49 49 49
52 52 51 49 48 46 44 42 41 38 36 36 37 37 37 36 34 33 33 33 33 32 31 30 30 29 28 27 26 25 24 24 25 26 27 29 30 30 29 31 33 36 37 35 32 30 30 32 34 34 33 32 33 35 36 37 38 39 40 42 43 44 45 47 49 50 51 50 50 49 48 48 47 47 47 47 47 47 47 48 48 49 49 49 50 50 50
51 50 49 47 46 44 42 41 40 38 36 36 37 38 38 37 35 33 33 33 32 32 31 31 30 30 29 28 26 25 24 25 27 28 28 29 30 30 30 32 35 37 37 34 31 29 30 31 33 33 32 32 33 33 34 34 35 35 36 37 37 37 39 41 44 48 50 51 51 51 50 50 50 50 50 50 50 49 50 50 50 51 51 52 52 52 53
49 48 46 45 43 42 41 41 41 39 37 37 38 39 39 38 35 33 33 34 33 32 32 31 31 31 30 28 27 26 25 26 28 28 27 28 30 31 32 33 35 36 34 32 30 30 31 31 33 34 34 34 33 33 33 33 34 34 35 35 34 34 34 35 37 40 44 47 49 50 51 52 52 52 52 52 52 52 52 53 53 53 54 54 55 55 55
47 45 44 43 43 42 42 42 42 40 38 38 39 40 40 38 35 34 34 34 33 32 32 32 31 31 31 30 28 27 26 27 28 28 27 29 31 31 32 33 34 34 34 32 32 31 32 33 34 36 36 35 33 32 33 34 34 34 34 34 34 33 33 33 34 35 37 40 43 46 49 51 52 53 54 54 54 54 54 55 55 55 56 56 56 56 56
45 44 44 44 43 43 44 44 44 42 40 40 40 40 40 38 35 34 35 34 33 33 33 33 32 32 31 30 29 28 27 27 28 28 28 29 29 30 31 33 33 34 34 34 33 33 34 35 36 37 37 36 35 34 34 35 35 35 34 34 34 33 33 33 33 34 35 36 39 41 45 48 50 52 53 54 55 55 56 56 56 57 57 57 57 57 58
46 46 46 45 45 45 46 46 45 43 42 41 40 40 40 38 36 35 35 34 34 33 33 33 33 32 32 31 30 29 29 28 28 28 28 28 29 30 32 34 34 34 34 34 35 36 37 37 37 37 37 37 37 36 35 35 35 34 34 35 35 34 34 33 33 33 34 35 36 38 41 43 46 48 50 52 53 54 55 55 56 56 56 57 57 57 57
Wind_Direction
350 350 351 351 351 350 351 351 352 354 355 357 358 359 360 0 1 2 2 1 2 4 4 4 5 8 10 9 8 8 8 8 11 16 31 67 98 119 135 149 159 166 174 179 182 184 183 184 188 188 188 189 190 190 189 189 189 191 194 197 200 203 205 207 209 211 212 212 211 211 211 213 214 214 214 216 218 220 222 224 227 229 230 229 227 226 227
349 350 351 351 350 350 350 351 352 353 355 357 357 358 359 360 0 2 2 1 2 3 3 3 4 8 11 10 9 9 9 10 16 20 33 70 101 116 125 135 145 157 172 178 180 183 183 183 186 188 188 189 190 190 189 188 189 190 193 196 198 200 202 205 207 209 211 212 212 211 211 213 214 215 216 216 216 218 220 222 225 227 228 228 228 227 227
349 349 350 350 350 349 349 350 351 352 354 356 357 357 358 359 360 1 2 2 2 2 2 2 3 7 12 11 8 9 10 12 17 23 35 63 89 111 124 131 138 150 165 176 180 183 183 183 185 187 188 188 189 189 188 188 189 190 193 195 197 198 200 202 205 207 210 212 214 215 215 215 216 217 217 217 217 218 220 223 225 227 228 228 228 228 228
348 349 349 350 349 349 348 349 350 351 353 355 357 357 357 358 360 0 1 2 2 1 1 1 2 6 12 13 9 9 10 11 16 26 40 59 75 96 121 133 141 150 161 170 178 182 182 182 184 186 187 187 187 187 187 188 190 191 193 194 196 198 199 201 203 206 208 211 214 216 217 217 218 219 219 219 219 219 220 222 224 226 227 227 227 227 228
348 348 349 349 349 348 348 348 349 350 352 354 356 357 357 358 359 360 1 1 2 0 360 1 2 4 11 13 10 10 11 12 16 27 40 55 66 80 112 134 144 153 160 165 172 179 180 180 183 185 186 185 185 186 187 188 190 192 193 193 195 198 199 201 203 204 205 208 210 212 214 215 216 217 217 219 220 220 221 221 222 224 225 226 226 227 227
347 348 348 348 348 348 347 347 348 349 351 352 355 356 357 357 358 359 360 1 1 1 360 0 2 4 8 12 11 10 12 14 18 25 36 52 62 72 99 134 146 153 161 165 168 174 176 178 181 183 183 184 185 187 188 188 189 192 193 193 194 197 198 200 203 204 204 207 208 209 210 212 215 216 216 217 218 220 220 220 221 222 223 224 225 225 226
347 347 347 348 348 347 347 347 347 348 350 352 353 355 356 356 357 358 359 360 0 1 360 360 1 3 7 10 10 9 11 16 21 26 33 47 63 75 90 130 146 151 160 166 168 172 174 174 177 179 181 184 186 187 188 189 190 191 192 193 194 195 197 200 202 204 205 207 208 209 209 211 213 215 216 217 217 218 219 220 220 221 221 222 223 223 225
346 347 347 347 347 347 346 346 346 347 349 351 352 354 354 355 356 358 358 359 359 0 1 360 360 2 6 9 9 8 9 14 22 30 35 45 64 82 95 117 138 146 158 165 168 171 171 171 173 177 181 184 187 188 189 190 191 191 191 192 194 194 196 199 201 203 206 207 208 209 210 211 212 214 215 216 217 218 219 220 222 222 222 222 221 221 222
345 346 346 347 347 346 345 345 345 346 348 350 351 353 354 354 355 356 357 358 358 359 0 360 359 1 4 8 9 8 8 12 20 30 40 50 65 86 102 114 129 141 153 163 167 169 169 169 172 176 180 183 186 188 189 190 191 191 190 192 194 194 196 198 200 202 205 207 208 208 209 211 213 214 215 216 217 218 219 221 223 224 224 224 223 222 222
344 345 346 346 346 345 345 344 344 345 347 349 350 352 353 354 354 355 356 357 357 358 360 360 359 360 2 5 8 8 7 9 17 27 38 52 68 89 105 116 126 138 149 159 165 168 170 171 172 175 178 181 184 187 189 190 190 190 191 192 193 195 196 197 199 202 204 206 208 208 209 212 213 214 215 216 217 218 219 220 222 224 224 225 225 225 225
343 344 345 346 345 344 344 343 343 344 346 348 349 350 352 353 354 355 356 356 356 357 358 359 359 359 359 2 7 9 6 6 14 25 33 44 67 91 105 117 126 136 147 156 163 168 171 172 172 175 178 180 183 185 187 190 191 190 191 192 194 196 197 197 198 201 204 206 207 208 210 213 214 215 216 216 217 218 220 220 221 222 223 224 225 226 226
342 344 344 345 345 344 343 342 343 343 345 346 348 349 350 352 353 354 355 355 356 356 356 357 359 358 356 358 4 9 9 7 9 22 33 42 67 92 103 115 125 135 146 155 161 167 172 173 174 176 178 180 183 185 186 188 191 191 191 192 194 196 198 198 199 201 203 205 207 208 211 214 215 216 216 216 217 219 220 221 221 222 223 224 224 225 226
341 343 344 344 344 343 342 341 342 342 344 345 346 347 349 350 351 353 353 354 354 354 354 356 357 357 356 356 360 6 12 10 7 15 33 46 69 90 99 110 121 131 143 153 158 165 171 175 175 176 178 180 183 185 186 187 190 192 192 193 195 197 199 199 200 201 203 205 206 208 211 213 216 217 217 217 217 218 220 221 222 223 224 225 225 226 227
341 342 343 343 343 342 341 341 341 342 343 344 345 346 347 349 350 351 352 353 353 353 353 354 355 355 355 355 357 2 10 11 8 10 27 51 73 92 103 110 116 124 134 143 151 160 167 173 175 176 178 181 183 185 186 187 189 192 193 194 196 198 200 200 200 202 203 205 206 208 210 212 214 216 217 217 218 218 219 220 221 222 224 225 226 226 227
340 342 342 342 342 341 340 340 340 340 342 343 344 344 346 347 348 350 351 351 352 351 350 351 352 353 354 354 356 0 5 9 9 8 18 53 81 96 108 113 115 119 125 132 141 152 161 168 173 177 180 182 184 186 187 188 190 192 193 195 198 199 200 200 201 202 204 205 206 208 210 212 213 214 216 218 218 219 219 220 220 221 222 224 225 227 227
340 341 341 341 340 340 339 339 339 339 340 341 342 343 344 345 346 348 349 350 350 349 348 348 350 351 351 350 354 360 2 4 9 10 14 44 85 99 109 116 119 120 122 127 135 146 155 163 171 176 180 181 183 185 187 188 190 193 195 197 199 201 201 202 202 203 204 205 206 208 210 212 213 214 216 218 219 220 221 221 220 220 221 222 222 223 223
340 340 340 339 339 339 338 338 338 338 338 339 340 342 343 344 345 346 348 349 348 348 347 345 346 348 347 346 350 359 1 0 5 12 17 30 71 99 109 119 123 124 126 130 137 145 151 158 169 176 180 181 181 182 186 189 191 194 198 200 202 202 203 203 203 204 204 205 207 208 210 211 213 215 217 218 219 221 222 223 222 222 224 224 221 218 217
340 339 338 338 337 337 337 337 337 337 337 337 339 340 341 343 344 344 346 347 347 346 345 343 343 344 343 340 342 351 359 359 359 7 20 23 38 92 113 125 128 127 130 136 141 147 153 157 165 172 176 178 178 179 184 190 194 197 199 202 204 205 206 206 206 205 205 206 207 209 210 212 214 216 218 219 221 222 224 225 225 225 226 225 221 216 213
339 338 337 336 335 335 335 335 336 336 336 336 337 338 339 341 343 343 344 345 346 345 343 341 340 340 338 333 333 339 350 358 357 359 15 24 17 60 123 138 138 134 135 140 144 150 156 159 163 166 169 173 176 178 181 187 195 201 203 205 207 208 209 209 208 207 208 208 209 210 211 213 215 217 219 220 222 223 225 226 225 225 224 222 218 213 212
338 337 335 334 334 333 333 334 335 335 335 334 335 336 338 339 341 342 343 343 345 345 342 339 336 335 332 327 324 327 332 345 355 353 4 24 8 336 152 156 155 146 141 143 148 153 158 159 161 163 165 170 175 178 179 183 190 197 203 208 211 212 213 213 211 209 210 210 211 212 213 214 215 217 219 221 222 224 225 225 223 220 217 215 213 211 211
337 336 334 332 332 331 331 332 333 334 334 333 333 335 336 338 340 341 342 341 343 344 342 337 332 329 325 320 314 312 313 319 334 337 343 13 1 304 286 233 190 166 151 145 147 154 159 159 159 160 161 164 170 175 177 181 186 191 197 204 209 211 212 212 211 210 210 210 211 212 213 215 216 216 218 219 220 222 222 221 217 213 210 210 210 210 210
336 335 332 330 330 329 330 331 331 332 332 332 332 333 334 336 338 340 341 340 340 343 342 336 329 323 318 313 305 295 291 288 281 280 292 312 270 255 261 267 249 205 170 155 149 152 160 160 158 158 159 161 163 168 174 179 183 188 193 197 200 201 201 202 205 206 207 208 210 212 212 214 215 216 216 217 217 217 217 216 212 208 206 206 207 209 210
335 334 330 328 328 328 328 329 330 330 330 331 332 332 333 335 337 338 340 339 338 341 341 336 328 319 310 304 296 286 274 261 250 242 234 226 218 215 210 211 229 223 193 171 159 155 161 166 163 158 156 158 160 165 172 177 180 183 187 191 194 195 195 196 198 201 203 205 208 210 210 211 212 212 213 213 213 212 212 212 210 207 205 205 206 208 210
333 332 329 326 326 326 326 327 328 328 328 329 330 331 332 334 336 337 338 337 337 339 339 336 328 316 304 295 287 279 269 253 235 223 216 211 211 210 202 189 184 191 196 187 173 164 163 170 172 165 159 158 162 167 173 177 179 180 182 187 192 194 194 194 194 196 199 202 205 207 208 208 208 208 208 209 210 210 211 210 209 206 205 204 206 208 211
330 330 327 324 324 324 325 326 326 327 327 328 329 330 331 332 334 335 336 336 336 337 337 334 328 315 300 290 280 270 263 254 237 218 208 205 207 211 209 197 184 179 182 190 190 180 171 171 176 175 169 166 168 172 176 179 181 182 183 186 190 193 194 193 193 195 197 200 203 205 206 206 205 205 205 206 208 209 210 211 210 208 206 206 207 210 213
328 327 325 323 322 322 323 324 324 325 325 326 328 329 330 331 332 334 334 334 335 336 335 332 326 314 298 287 276 264 257 254 244 226 209 202 203 207 209 205 195 186 182 185 194 195 187 180 181 183 182 179 178 178 179 181 184 186 187 189 190 192 193 193 194 196 198 200 202 205 206 205 204 204 205 206 208 210 211 211 211 211 210 210 211 214 217
325 325 323 321 320 320 321 322 323 323 324 325 326 328 329 330 331 332 332 333 333 335 334 330 324 313 298 284 274 263 254 250 247 237 220 208 205 204 203 203 201 194 189 188 190 195 196 192 190 192 193 192 190 186 184 186 188 189 190 191 191 191 193 194 196 199 201 202 203 205 205 205 204 204 205 206 208 210 211 212 213 213 214 214 216 218 220
322 322 321 319 318 318 319 320 321 321 322 324 325 327 328 329 329 329 330 331 332 333 333 330 322 312 298 283 272 262 253 246 244 240 230 218 212 208 204 202 203 200 196 193 193 195 196 195 197 200 201 200 200 197 195 194 194 194 194 194 193 193 194 196 198 200 202 204 206 207 207 206 205 205 205 207 209 210 211 213 214 215 216 218 219 221 223
320 319 318 317 317 317 317 318 319 320 321 323 324 325 327 328 328 327 328 329 331 332 333 329 321 310 298 283 269 259 250 243 240 238 232 223 216 214 210 206 205 205 202 199 197 198 197 195 196 200 202 202 202 204 205 204 202 200 200 199 198 198 199 199 200 201 204 206 207 208 209 209 208 207 207 208 210 211 213 215 216 217 218 220 222 224 226
317 316 316 315 315 315 315 316 317 318 320 321 323 324 326 327 326 325 326 327 329 331 332 330 322 309 297 284 268 257 249 243 238 237 233 226 219 216 214 212 209 208 207 205 203 201 199 197 197 198 200 201 202 203 205 207 207 206 205 205 205 205 205 205 204 204 206 208 209 209 210 211 211 210 209 209 211 213 215 217 219 220 221 222 224 226 229
314 314 313 313 313 313 313 315 316 317 319 320 321 323 325 325 324 323 323 324 328 330 331 330 324 311 298 285 269 257 250 244 240 237 234 228 222 218 216 215 213 211 210 210 209 206 203 200 200 200 200 202 203 203 203 205 207 208 207 207 208 210 210 210 210 209 210 211 212 212 212 213 213 213 213 213 214 215 217 219 222 223 225 226 228 229 231
311 311 311 311 311 312 312 314 315 316 318 319 320 322 324 324 322 322 321 322 325 327 329 330 326 315 301 287 271 261 256 250 243 239 235 232 227 223 219 217 216 215 215 214 213 212 209 205 203 203 203 204 204 203 203 204 207 209 208 208 209 211 212 212 213 214 215 216 216 217 217 217 218 217 217 217 218 219 221 223 225 227 228 230 231 232 232
309 309 309 309 310 310 311 313 314 315 316 317 319 321 323 322 320 320 320 320 321 324 326 329 327 319 307 292 278 269 263 256 247 240 236 234 231 227 224 220 218 218 218 218 217 216 215 212 209 207 207 207 207 206 205 205 206 208 208 209 210 212 213 213 213 214 215 217 218 219 220 221 222 221 220 220 220 221 222 223 225 226 227 229 230 230 231
308 308 308 308 309 309 310 311 313 313 315 316 318 320 320 319 318 318 317 317 317 319 323 324 324 320 312 301 289 280 271 264 256 245 237 234 232 229 226 223 221 220 220 219 219 218 219 218 216 213 212 212 211 211 209 209 208 209 209 209 211 213 215 215 215 216 216 216 216 218 219 221 222 222 222 221 220 220 221 221 222 223 224 226 227 228 230
307 307 307 307 308 308 309 310 311 312 313 315 317 318 318 317 316 316 315 314 313 315 319 320 317 315 311 303 297 289 278 269 261 251 241 236 233 231 228 225 224 223 222 221 220 220 220 220 220 218 217 216 217 217 215 213 212 211 211 211 213 214 215 215 216 218 219 219 218 218 219 220 221 222 222 221 220 220 220 220 221 222 224 226 227 229 231
306 306 306 306 307 307 308 308 309 310 311 313 316 317 316 315 314 313 312 311 310 312 314 314 311 310 306 300 298 293 284 274 265 256 247 241 236 233 231 228 226 225 225 224 223 222 221 221 221 221 221 220 221 222 221 218 216 215 214 214 215 216 216 216 216 218 220 221 221 221 221 222 223 224 224 224 223 222 222 222 223 224 226 228 230 231 233
305 305 305 305 305 305 306 307 308 309 310 312 314 315 314 313 312 310 309 308 308 309 309 309 309 306 298 294 294 293 286 278 269 260 252 245 239 235 233 230 228 227 226 226 225 224 223 223 223 223 223 223 224 225 224 223 221 219 218 218 218 219 219 218 219 220 222 223 223 223 223 223 224 226 227 228 228 227 227 227 227 228 230 232 234 235 237
304 303 303 303 303 304 304 305 306 307 309 310 312 312 312 311 309 308 308 307 307 306 305 306 306 300 291 289 291 290 284 278 270 263 256 248 243 239 235 233 231 229 228 228 227 226 226 225 225 225 225 226 227 227 227 226 225 224 223 222 222 222 221 221 221 222 224 225 225 226 225 225 225 226 228 230 232 232 233 233 233 234 235 237 238 239 240
302 302 302 302 302 302 303 304 305 306 307 309 310 310 310 308 307 306 306 306 305 304 303 303 300 292 286 285 285 282 279 274 269 264 259 253 247 242 238 236 234 232 230 230 229 228 227 227 227 227 227 228 229 229 229 229 229 229 228 227 226 225 225 224 224 225 226 227 228 228 228 228 228 228 229 230 232 234 235 236 237 238 239 241 242 243 244
302 301 301 301 301 302 302 303 303 305 306 307 308 308 307 306 306 305 305 305 304 301 300 298 293 286 281 278 275 273 271 267 264 262 261 257 251 245 240 237 235 233 233 232 231 229 228 228 228 228 229 229 229 230 231 231 231 231 231 231 230 230 229 228 228 228 228 229 231 232 232 232 232 232 232 232 233 235 236 237 238 239 241 243 245 246 247
301 301 301 301 301 301 301 302 302 303 305 306 306 305 305 305 305 304 304 303 301 299 296 294 289 283 278 273 270 269 268 264 259 254 253 252 250 246 242 238 236 234 234 234 232 230 230 229 230 231 231 230 229 230 232 232 232 232 232 232 233 233 232 232 232 232 232 232 233 234 235 235 235 236 236 236 236 237 239 240 241 241 243 244 246 248 249
300 300 301 301 301 301 301 301 302 303 304 304 304 303 303 304 303 303 303 301 299 296 294 291 287 282 277 273 270 269 269 266 261 256 252 250 248 245 241 239 237 235 234 235 234 232 231 230 231 232 233 232 231 231 232 233 234 235 235 235 234 234 234 234 235 235 235 235 235 236 237 238 238 239 239 239 240 241 242 243 244 244 245 246 247 249 250
298 299 299 299 299 299 300 300 301 301 302 302 302 301 302 302 302 301 301 299 297 294 292 290 287 282 279 275 272 270 268 264 260 258 255 252 248 244 241 239 238 236 235 235 234 233 232 232 233 234 235 235 233 233 234 235 236 237 237 237 236 236 235 235 236 236 236 236 237 237 238 238 240 241 241 242 242 242 243 244 245 246 247 248 249 250 251
296 297 297 298 298 298 298 299 299 300 300 300 300 300 300 300 300 300 299 296 294 291 289 287 284 280 277 275 272 270 267 263 259 257 255 251 247 245 243 241 239 237 236 235 234 233 233 234 234 236 237 237 236 235 235 236 236 237 238 238 238 238 237 237 237 238 238 238 238 238 238 239 239 240 241 242 242 243 243 244 245 246 247 248 249 250 251
294 295 296 296 297 297 297 298 298 298 298 299 299 299 299 299 299 299 297 294 291 289 287 284 282 279 277 274 271 268 267 265 262 259 256 252 248 245 243 241 238 238 237 236 234 233 233 234 235 236 237 238 238 237 237 237 238 238 239 239 239 239 239 239 240 240 240 240 240 240 240 240 240 240 241 241 242 243 243 243 244 245 246 247 248 249 251
293 293 294 295 296 296 297 297 297 296 297 298 298 298 298 298 297 296 294 291 289 287 285 283 282 279 277 273 270 268 267 265 262 258 255 251 248 246 244 241 239 238 239 237 235 233 234 235 237 238 238 238 238 238 238 239 239 240 240 240 239 239 239 239 240 240 241 241 242 242 242 242 243 243 243 243 243 244 245 245 246 246 247 248 249 250 251
292 292 292 294 295 295 295 296 295 295 297 297 297 297 297 296 295 294 292 289 287 284 283 281 280 278 276 272 270 268 267 265 261 256 252 249 249 249 246 242 239 238 238 237 235 233 234 237 240 241 240 239 239 239 240 241 241 242 242 242 241 240 239 238 238 239 240 240 241 242 243 243 244 244 245 245 245 246 247 248 249 250 250 251 251 252 253
291 291 292 293 293 294 294 294 294 295 296 296 296 296 295 293 292 291 289 287 284 282 280 279 278 277 274 272 270 269 267 263 259 254 250 249 249 248 245 242 239 239 239 238 235 233 234 237 240 242 241 239 238 239 240 241 242 243 244 244 243 242 241 239 238 238 238 239 240 241 242 243 243 244 245 246 246 247 248 249 250 251 252 253 254 255 256
290 291 292 292 292 292 293 294 293 294 295 295 295 294 292 291 290 289 286 284 282 280 279 277 276 275 273 272 270 268 266 262 259 256 252 249 247 245 244 242 241 242 242 239 235 232 232 234 238 240 241 239 238 238 240 241 242 242 243 244 244 243 242 240 240 239 239 238 238 239 240 241 242 243 245 246 246 247 248 249 251 252 253 255 256 257 259
290 291 292 292 292 292 293 293 292 292 293 293 293 291 290 289 288 287 284 282 281 279 277 276 274 273 273 271 269 268 265 262 260 257 253 249 248 248 247 245 245 244 242 238 234 231 231 232 234 238 240 241 240 239 239 241 242 243 243 244 244 244 243 242 241 240 239 238 238 238 239 240 241 242 244 245 246 247 248 250 251 252 254 255 257 258 259
291 291 291 291 292 292 292 291 291 291 292 291 290 289 287 286 285 284 282 280 279 277 275 274 273 272 272 270 269 267 265 261 258 255 252 249 248 249 248 247 246 244 241 236 232 230 230 231 233 236 239 240 240 239 238 239 241 242 243 244 244 244 244 243 242 241 240 239 238 238 239 239 240 242 243 244 246 247 249 250 251 253 254 256 257 259 260
291 291 291 290 291 291 290 289 290 290 289 288 287 286 285 284 283 281 279 278 277 275 273 272 272 271 270 269 268 266 263 259 256 253 251 249 246 245 245 245 244 243 240 236 232 230 230 231 233 235 237 239 240 240 239 239 240 241 242 243 243 243 243 243 242 241 240 239 239 239 239 240 241 243 244 245 247 248 249 251 253 254 256 257 259 260 262
Height
10502 10494 10485 10476 10468 10461 10454 10447 10438 10429 10420 10411 10405 10398 10390 10381 10373 10364 10356 10347 10339 10332 10326 10320 10314 10307 10301 10296 10291 10287 10284 10281 10278 10275 10272 10270 10269 10269 10270 10272 10273 10276 10278 10282 10286 10291 10295 10300 10305 10311 10317 10323 10331 10339 10347 10357 10368 10378 10387 10393 10400 10411 10424 10435 10447 10458 10465 10467 10469 10473 10478 10483 10488 10494 10503 10513 10522 10533 10544 10551 10556 10561 10567 10574 10579 10583 10587
10502 10494 10486 10477 10469 10461 10454 10448 10441 10433 10425 10415 10405 10398 10392 10384 10375 10366 10358 10349 10341 10334 10329 10324 10318 10311 10304 10298 10294 10290 10287 10284 10281 10279 10276 10274 10272 10271 10272 10274 10276 10279 10282 10285 10288 10292 10296 10300 10305 10311 10316 10322 10330 10339 10349 10358 10367 10375 10382 10390 10400 10412 10422 10432 10442 10447 10451 10454 10459 10464 10470 10477 10485 10493 10503 10513 10523 10532 10540 10545 10550 10557 10564 10570 10576 10580 10583
10501 10494 10486 10478 10470 10461 10454 10449 10442 10436 10429 10422 10411 10400 10392 10384 10376 10368 10361 10353 10344 10337 10332 10327 10321 10315 10308 10302 10298 10294 10291 10288 10285 10283 10281 10279 10277 10275 10275 10275 10278 10281 10285 10289 10292 10295 10298 10302 10307 10313 10319 10325 10334 10344 10353 10361 10368 10373 10380 10388 10398 10406 10415 10424 10433 10439 10447 10456 10463 10470 10477 10484 10490 10498 10507 10515 10522 10530 10536 10542 10549 10556 10562 10568 10572 10576 10579
10500 10493 10486 10479 10470 10462 10454 10448 10443 10436 10430 10424 10417 10406 10395 10386 10377 10369 10362 10355 10348 10342 10336 10330 10324 10318 10312 10307 10302 10298 10295 10292 10289 10287 10285 10283 10281 10281 10279 10279 10280 10283 10287 10291 10295 10299 10302 10305 10310 10316 10322 10329 10338 10347 10354 10361 10367 10372 10379 10387 10397 10404 10412 10421 10428 10439 10452 10462 10469 10476 10483 10489 10495 10502 10509 10516 10522 10528 10534 10541 10548 10554 10559 10564 10568 10571 10575
10500 10492 10485 10478 10471 10463 10455 10448 10442 10436 10430 10424 10419 10411 10401 10391 10382 10374 10367 10359 10353 10346 10339 10334 10328 10321 10316 10311 10306 10302 10299 10297 10294 10291 10289 10287 10286 10286 10285 10285 10284 10286 10289 10292 10297 10302 10306 10310 10315 10320 10326 10333 10340 10347 10352 10358 10365 10372 10379 10388 10396 10405 10414 10422 10430 10440 10449 10453 10459 10468 10477 10485 10491 10497 10504 10512 10518 10524 10531 10538 10545 10549 10554 10559 10563 10567 10571
10499 10492 10484 10478 10471 10463 10456 10449 10442 10436 10429 10422 10417 10412 10405 10396 10387 10379 10371 10364 10358 10350 10343 10337 10332 10326 10320 10314 10310 10307 10303 10301 10298 10296 10294 10292 10291 10291 10291 10291 10290 10291 10293 10296 10300 10304 10309 10314 10319 10325 10332 10338 10342 10346 10351 10357 10364 10371 10379 10388 10396 10405 10415 10423 10430 10438 10443 10447 10454 10463 10471 10479 10485 10492 10500 10507 10513 10520 10528 10535 10540 10544 10550 10554 10558 10563 10568
10498 10491 10484 10477 10470 10463 10456 10450 10444 10437 10430 10422 10415 10409 10404 10398 10390 10380 10372 10366 10360 10354 10347 10341 10336 10330 10324 10319 10315 10311 10308 10305 10303 10301 10299 10297 10296 10295 10296 10297 10296 10297 10299 10301 10304 10308 10312 10317 10323 10330 10335 10339 10343 10347 10353 10358 10363 10371 10381 10390 10397 10406 10415 10422 10428 10436 10442 10448 10455 10463 10469 10475 10482 10489 10495 10502 10509 10517 10524 10530 10534 10540 10546 10549 10554 10559 10563
10496 10490 10483 10476 10469 10462 10455 10450 10445 10439 10433 10426 10419 10410 10403 10396 10390 10382 10375 10369 10362 10357 10351 10344 10339 10334 10329 10324 10320 10317 10313 10310 10307 10305 10304 10302 10301 10300 10301 10301 10301 10302 10304 10307 10309 10312 10316 10321 10327 10333 10337 10341 10346 10351 10357 10362 10367 10375 10384 10392 10399 10407 10413 10420 10428 10436 10442 10449 10455 10461 10467 10473 10479 10484 10489 10497 10505 10513 10521 10527 10532 10538 10543 10546 10550 10555 10559
10495 10489 10482 10475 10468 10461 10455 10449 10444 10439 10434 10428 10423 10416 10407 10399 10391 10384 10378 10371 10365 10359 10354 10348 10343 10338 10333 10329 10325 10322 10319 10315 10311 10309 10307 10306 10305 10305 10305 10305 10306 10307 10309 10312 10314 10317 10320 10324 10328 10333 10338 10344 10350 10355 10361 10366 10372 10379 10386 10393 10399 10406 10412 10419 10427 10434 10440 10446 10453 10459 10466 10472 10476 10480 10486 10494 10503 10511 10519 10524 10530 10535 10540 10544 10548 10553 10556
10494 10487 10481 10474 10467 10460 10454 10448 10443 10438 10433 10428 10422 10417 10411 10404 10396 10388 10380 10373 10368 10362 10357 10352 10347 10342 10337 10334 10331 10327 10324 10320 10317 10314 10311 10310 10309 10308 10308 10309 10310 10311 10313 10316 10318 10321 10324 10327 10330 10334 10339 10345 10351 10357 10363 10368 10374 10381 10387 10393 10399 10405 10410 10418 10425 10432 10438 10445 10452 10459 10464 10467 10470 10476 10484 10493 10502 10510 10516 10521 10527 10532 10537 10542 10546 10550 10553
10492 10486 10479 10473 10466 10459 10453 10447 10442 10436 10432 10427 10421 10416 10411 10405 10398 10390 10383 10376 10369 10364 10359 10354 10350 10346 10342 10339 10335 10332 10329 10326 10322 10319 10317 10314 10313 10312 10311 10312 10313 10315 10316 10319 10321 10324 10327 10330 10333 10337 10341 10346 10351 10357 10363 10370 10376 10381 10387 10393 10399 10404 10410 10417 10423 10430 10437 10444 10451 10457 10460 10463 10468 10476 10485 10494 10501 10507 10513 10517 10523 10528 10532 10537 10541 10545 10549
10490 10484 10478 10472 10465 10458 10452 10446 10441 10436 10431 10426 10420 10415 10409 10404 10399 10392 10385 10378 10372 10367 10362 10357 10353 10350 10346 10342 10339 10337 10334 10331 10328 10324 10322 10320 10318 10316 10315 10316 10317 10318 10319 10321 10323 10326 10329 10332 10335 10339 10343 10347 10352 10357 10363 10369 10376 10382 10387 10393 10399 10404 10410 10416 10422 10428 10435 10441 10449 10454 10458 10463 10469 10476 10485 10493 10499 10504 10509 10514 10519 10524 10528 10533 10537 10541 10545
10488 10482 10476 10470 10464 10458 10451 10445 10440 10435 10430 10425 10420 10414 10409 10404 10398 10393 10386 10380 10374 10369 10364 10359 10355 10353 10349 10345 10342 10340 10338 10335 10333 10330 10327 10325 10323 10321 10320 10320 10321 10322 10323 10324 10326 10329 10332 10335 10338 10341 10345 10350 10354 10358 10363 10368 10376 10382 10388 10394 10399 10403 10408 10414 10421 10427 10433 10439 10446 10452 10457 10463 10469 10475 10483 10490 10494 10499 10504 10510 10515 10521 10525 10529 10533 10537 10540
10486 10480 10474 10469 10463 10457 10451 10445 10439 10435 10430 10424 10419 10414 10409 10404 10399 10394 10388 10382 10375 10370 10366 10362 10358 10355 10352 10349 10345 10343 10340 10338 10337 10334 10332 10329 10327 10325 10324 10324 10324 10325 10327 10328 10330 10333 10336 10339 10342 10345 10349 10352 10356 10360 10364 10369 10374 10380 10387 10393 10397 10401 10406 10413 10420 10426 10431 10438 10444 10449 10455 10461 10466 10472 10478 10483 10488 10493 10499 10505 10511 10516 10521 10525 10529 10533 10536
10483 10478 10472 10467 10461 10456 10450 10444 10438 10433 10429 10424 10419 10414 10408 10403 10399 10394 10389 10383 10377 10371 10367 10364 10360 10357 10354 10352 10349 10346 10343 10341 10340 10338 10336 10333 10331 10330 10329 10328 10328 10329 10330 10332 10334 10337 10339 10342 10345 10348 10351 10354 10358 10362 10366 10370 10374 10380 10386 10391 10395 10399 10405 10411 10417 10423 10429 10435 10441 10447 10453 10457 10462 10468 10473 10478 10483 10489 10494 10500 10505 10511 10515 10520 10524 10528 10532
10481 10475 10470 10465 10460 10455 10449 10444 10437 10432 10427 10423 10418 10413 10408 10402 10397 10393 10389 10383 10378 10372 10368 10364 10361 10358 10355 10354 10351 10348 10346 10345 10343 10341 10340 10338 10336 10335 10334 10333 10332 10333 10334 10336 10338 10340 10342 10345 10348 10351 10354 10356 10359 10363 10367 10371 10376 10382 10387 10390 10393 10398 10404 10409 10415 10420 10427 10433 10439 10444 10450 10455 10460 10465 10469 10474 10480 10485 10490 10495 10501 10506 10510 10514 10518 10522 10526
10478 10473 10468 10462 10458 10453 10448 10443 10437 10431 10425 10421 10417 10413 10408 10402 10396 10392 10388 10383 10377 10373 10368 10364 10361 10359 10356 10355 10353 10351 10349 10348 10346 10344 10343 10341 10340 10338 10338 10338 10337 10337 10338 10339 10341 10343 10345 10348 10351 10354 10356 10358 10362 10366 10370 10374 10378 10382 10386 10390 10394 10398 10402 10407 10412 10418 10424 10430 10436 10442 10447 10452 10457 10462 10466 10472 10477 10482 10487 10493 10499 10504 10507 10510 10514 10517 10519
10476 10471 10465 10460 10455 10451 10446 10442 10436 10430 10424 10419 10415 10411 10407 10402 10396 10391 10387 10383 10377 10372 10368 10365 10362 10359 10357 10355 10354 10353 10351 10350 10349 10347 10345 10345 10344 10342 10342 10341 10341 10341 10341 10342 10344 10346 10347 10349 10352 10355 10358 10361 10364 10368 10372 10376 10379 10382 10386 10390 10394 10397 10401 10406 10411 10417 10423 10428 10434 10439 10445 10450 10454 10459 10464 10469 10474 10480 10486 10490 10495 10500 10502 10505 10509 10512 10514
10473 10468 10463 10457 10453 10448 10444 10440 10435 10429 10422 10417 10413 10409 10405 10401 10396 10390 10385 10382 10377 10371 10367 10365 10362 10359 10358 10356 10355 10354 10353 10351 10351 10350 10348 10347 10347 10346 10345 10345 10344 10343 10344 10345 10346 10348 10349 10351 10353 10356 10359 10362 10365 10368 10372 10375 10379 10383 10387 10390 10394 10397 10401 10406 10412 10418 10423 10428 10432 10438 10443 10447 10452 10457 10462 10467 10473 10477 10482 10485 10490 10494 10497 10500 10504 10507 10510
10470 10465 10460 10455 10450 10446 10441 10437 10433 10428 10422 10415 10410 10407 10403 10398 10394 10389 10384 10380 10377 10372 10367 10364 10361 10359 10357 10356 10355 10355 10354 10353 10352 10352 10351 10350 10350 10349 10349 10348 10347 10346 10346 10347 10348 10350 10351 10352 10355 10357 10360 10363 10366 10368 10371 10375 10379 10383 10387 10391 10395 10399 10403 10407 10413 10418 10422 10427 10431 10436 10440 10445 10450 10455 10460 10464 10469 10473 10476 10480 10485 10489 10492 10495 10499 10502 10506
10466 10462 10457 10452 10448 10443 10438 10434 10430 10426 10421 10414 10408 10403 10400 10396 10392 10388 10382 10377 10374 10371 10366 10363 10360 10358 10356 10356 10355 10355 10355 10354 10353 10353 10353 10352 10352 10352 10352 10351 10350 10349 10348 10349 10351 10353 10354 10355 10356 10358 10360 10363 10366 10369 10372 10375 10379 10383 10387 10391 10395 10400 10404 10408 10411 10415 10419 10423 10427 10432 10437 10441 10446 10451 10455 10459 10464 10467 10471 10475 10479 10483 10487 10491 10494 10497 10500
10462 10459 10454 10449 10445 10440 10435 10431 10427 10423 10419 10413 10406 10400 10397 10393 10389 10385 10381 10376 10372 10369 10366 10362 10359 10357 10355 10354 10354 10354 10355 10354 10354 10354 10354 10354 10354 10354 10354 10354 10353 10352 10351 10351 10352 10354 10356 10356 10357 10359 10361 10363 10367 10370 10373 10376 10379 10383 10386 10390 10394 10398 10402 10406 10409 10412 10415 10419 10423 10428 10433 10438 10443 10448 10452 10455 10459 10462 10466 10470 10475 10479 10483 10487 10490 10493 10495
10458 10455 10451 10446 10442 10437 10433 10428 10424 10419 10415 10411 10405 10398 10393 10390 10386 10382 10379 10374 10370 10367 10364 10361 10358 10356 10353 10352 10352 10353 10353 10354 10354 10354 10354 10355 10355 10354 10354 10355 10355 10355 10354 10353 10353 10355 10357 10358 10359 10360 10362 10365 10367 10370 10373 10376 10379 10382 10386 10389 10392 10396 10399 10403 10406 10409 10413 10417 10421 10425 10430 10435 10440 10444 10448 10452 10455 10458 10462 10466 10471 10475 10479 10483 10486 10488 10491
10453 10450 10446 10442 10438 10434 10430 10425 10420 10415 10411 10407 10402 10396 10390 10386 10383 10379 10376 10372 10368 10365 10362 10359 10357 10354 10352 10351 10350 10351 10351 10352 10353 10353 10354 10355 10355 10355 10354 10354 10355 10357 10357 10357 10356 10356 10358 10360 10361 10361 10362 10365 10368 10371 10373 10376 10379 10382 10386 10389 10392 10395 10398 10401 10404 10408 10412 10416 10420 10423 10427 10432 10436 10440 10444 10448 10452 10456 10459 10463 10467 10471 10475 10478 10481 10484 10486
10449 10446 10442 10437 10434 10430 10426 10422 10417 10412 10407 10402 10399 10393 10387 10383 10379 10376 10373 10369 10366 10363 10360 10357 10355 10352 10350 10349 10348 10348 10349 10350 10351 10352 10353 10354 10354 10355 10355 10355 10355 10356 10358 10359 10359 10359 10359 10360 10362 10362 10363 10364 10367 10370 10373 10376 10379 10382 10385 10388 10391 10394 10397 10400 10403 10406 10410 10414 10418 10421 10425 10430 10434 10438 10442 10445 10449 10452 10456 10460 10464 10467 10471 10474 10477 10479 10482
10444 10441 10437 10433 10429 10425 10422 10418 10414 10408 10403 10398 10394 10390 10384 10379 10375 10373 10370 10367 10363 10360 10357 10354 10352 10350 10348 10347 10346 10346 10346 10347 10349 10350 10352 10352 10353 10354 10355 10356 10356 10356 10357 10359 10360 10361 10361 10362 10363 10364 10365 10366 10367 10369 10372 10375 10378 10381 10384 10387 10390 10393 10396 10399 10403 10405 10408 10411 10414 10418 10421 10426 10431 10436 10440 10444 10447 10450 10453 10457 10460 10464 10468 10471 10474 10476 10479
10438 10435 10432 10427 10423 10420 10417 10413 10410 10404 10399 10394 10390 10386 10381 10376 10371 10369 10366 10363 10361 10358 10354 10351 10348 10347 10346 10344 10344 10344 10344 10345 10346 10348 10349 10351 10351 10352 10354 10355 10356 10356 10357 10358 10360 10361 10363 10364 10365 10366 10367 10369 10370 10372 10374 10376 10378 10381 10384 10387 10389 10392 10395 10398 10401 10404 10406 10409 10412 10415 10419 10424 10429 10434 10437 10441 10444 10447 10450 10454 10457 10461 10464 10468 10471 10473 10475
10432 10429 10426 10422 10418 10414 10411 10408 10405 10400 10395 10391 10386 10382 10378 10372 10367 10365 10363 10360 10357 10355 10352 10348 10345 10343 10342 10342 10341 10341 10341 10342 10343 10345 10346 10348 10350 10351 10352 10353 10355 10356 10356 10357 10359 10360 10362 10364 10365 10367 10369 10371 10373 10375 10376 10378 10380 10382 10384 10387 10389 10392 10395 10397 10400 10403 10406 10409 10412 10415 10419 10423 10427 10431 10435 10439 10442 10445 10448 10451 10454 10457 10460 10463 10466 10468 10470
10425 10423 10420 10416 10412 10408 10405 10402 10399 10395 10391 10387 10382 10377 10373 10369 10364 10360 10358 10357 10354 10351 10349 10345 10342 10339 10339 10339 10339 10338 10338 10339 10340 10341 10343 10345 10347 10348 10350 10351 10353 10354 10355 10356 10358 10360 10361 10363 10365 10366 10368 10371 10373 10375 10377 10378 10381 10383 10385 10387 10390 10392 10394 10397 10400 10403 10405 10408 10411 10415 10418 10421 10425 10428 10432 10435 10438 10441 10444 10447 10449 10452 10455 10458 10460 10463 10465
10419 10416 10413 10409 10405 10402 10399 10396 10393 10390 10386 10382 10378 10373 10369 10365 10360 10357 10354 10353 10351 10349 10346 10342 10339 10336 10335 10335 10335 10335 10335 10335 10336 10337 10339 10341 10343 10345 10346 10348 10349 10351 10353 10355 10356 10358 10360 10362 10364 10365 10367 10369 10371 10373 10375 10378 10380 10382 10384 10387 10389 10392 10394 10396 10399 10402 10404 10406 10409 10412 10415 10418 10421 10425 10428 10431 10434 10437 10440 10442 10445 10448 10451 10454 10456 10458 10460
10412 10410 10407 10403 10399 10396 10393 10390 10387 10384 10380 10377 10373 10369 10365 10361 10356 10353 10350 10348 10347 10345 10343 10339 10336 10333 10331 10332 10332 10332 10331 10332 10332 10333 10335 10337 10339 10340 10342 10344 10346 10348 10350 10352 10353 10355 10358 10360 10362 10364 10365 10367 10369 10371 10374 10376 10378 10380 10383 10385 10388 10390 10392 10395 10397 10400 10402 10404 10406 10409 10412 10415 10418 10422 10425 10429 10431 10434 10436 10439 10441 10444 10447 10449 10451 10453 10454
10405 10403 10400 10396 10393 10389 10386 10384 10381 10378 10375 10371 10367 10364 10361 10357 10353 10349 10346 10344 10343 10342 10340 10337 10333 10330 10328 10328 10328 10328 10328 10329 10329 10330 10332 10333 10335 10337 10338 10340 10343 10345 10346 10348 10350 10352 10355 10357 10359 10361 10363 10365 10367 10369 10372 10374 10376 10378 10381 10383 10385 10387 10389 10392 10395 10398 10400 10402 10405 10408 10410 10413 10415 10418 10422 10425 10428 10431 10433 10435 10437 10439 10441 10443 10445 10446 10448
10398 10395 10393 10389 10386 10382 10380 10377 10374 10371 10368 10365 10362 10359 10356 10353 10349 10345 10342 10340 10338 10338 10336 10334 10331 10328 10326 10325 10325 10326 10326 10326 10326 10327 10328 10330 10331 10333 10335 10337 10339 10341 10343 10345 10347 10350 10352 10354 10356 10358 10360 10362 10365 10367 10369 10370 10372 10374 10377 10380 10383 10385 10387 10390 10392 10395 10398 10400 10403 10405 10407 10409 10412 10414 10417 10420 10423 10426 10428 10430 10431 10433 10435 10437 10439 10440 10442
10390 10388 10385 10382 10379 10376 10373 10370 10367 10364 10362 10359 10356 10353 10351 10348 10345 10342 10338 10336 10334 10333 10333 10331 10329 10326 10324 10322 10322 10323 10323 10323 10323 10324 10324 10325 10327 10329 10331 10333 10335 10337 10338 10341 10343 10346 10348 10350 10353 10355 10357 10359 10361 10363 10365 10367 10369 10372 10375 10378 10380 10382 10385 10388 10391 10393 10395 10398 10400 10402 10404 10406 10408 10411 10414 10417 10419 10421 10423 10425 10427 10428 10430 10431 10433 10434 10436
10382 10380 10377 10375 10372 10369 10366 10363 10361 10358 10356 10353 10351 10348 10345 10343 10340 10337 10334 10331 10329 10329 10329 10328 10326 10324 10321 10320 10319 10320 10320 10319 10320 10320 10320 10321 10322 10324 10326 10328 10330 10332 10334 10336 10339 10341 10343 10346 10349 10351 10354 10356 10358 10359 10361 10363 10366 10370 10373 10375 10377 10379 10382 10385 10387 10389 10392 10394 10396 10399 10401 10403 10405 10407 10409 10412 10414 10417 10419 10421 10422 10424 10424 10426 10428 10429 10431
10374 10372 10369 10367 10365 10361 10358 10356 10354 10351 10349 10347 10345 10342 10339 10337 10335 10332 10330 10327 10325 10324 10324 10323 10322 10321 10319 10317 10316 10316 10316 10315 10316 10316 10317 10317 10319 10320 10322 10324 10326 10328 10330 10332 10334 10336 10339 10341 10344 10347 10350 10352 10353 10355 10357 10360 10363 10366 10369 10371 10373 10375 10378 10381 10384 10386 10387 10390 10392 10395 10397 10399 10401 10403 10404 10406 10409 10411 10413 10415 10417 10419 10420 10421 10423 10425 10427
10366 10364 10361 10359 10357 10354 10351 10349 10347 10345 10342 10341 10340 10337 10334 10331 10329 10327 10325 10322 10320 10320 10319 10319 10318 10317 10315 10313 10313 10313 10311 10311 10312 10312 10313 10313 10314 10316 10317 10319 10321 10323 10325 10327 10330 10332 10335 10337 10340 10343 10345 10347 10348 10350 10353 10356 10359 10362 10364 10367 10369 10371 10374 10377 10380 10381 10382 10384 10387 10389 10391 10394 10396 10398 10400 10402 10403 10405 10407 10410 10412 10415 10416 10417 10418 10420 10422
10358 10356 10354 10352 10350 10347 10344 10342 10340 10338 10336 10334 10333 10332 10329 10326 10323 10321 10319 10317 10316 10314 10314 10314 10314 10312 10310 10309 10309 10308 10307 10307 10307 10307 10308 10309 10310 10311 10313 10315 10316 10318 10321 10322 10325 10328 10331 10334 10336 10339 10340 10342 10343 10345 10348 10351 10354 10357 10359 10362 10364 10367 10370 10372 10375 10376 10377 10379 10381 10383 10385 10388 10391 10394 10395 10397 10398 10400 10403 10405 10408 10410 10411 10411 10413 10415 10416
10351 10349 10347 10344 10342 10340 10338 10335 10333 10332 10330 10328 10327 10326 10323 10320 10317 10315 10314 10313 10311 10309 10309 10309 10308 10306 10305 10305 10305 10303 10303 10302 10302 10302 10303 10305 10306 10307 10309 10311 10312 10314 10316 10318 10320 10324 10327 10329 10332 10334 10335 10337 10338 10341 10344 10347 10350 10352 10354 10357 10359 10362 10364 10367 10369 10371 10372 10373 10374 10377 10380 10383 10386 10388 10390 10392 10393 10395 10397 10400 10402 10403 10404 10405 10406 10407 10409
10344 10342 10340 10337 10335 10333 10331 10328 10327 10325 10324 10322 10320 10319 10317 10315 10312 10310 10308 10308 10306 10304 10303 10303 10302 10301 10300 10300 10299 10298 10297 10298 10298 10298 10299 10300 10301 10303 10305 10306 10308 10309 10311 10313 10315 10318 10321 10324 10326 10328 10329 10331 10334 10337 10339 10342 10344 10346 10349 10351 10354 10356 10359 10361 10363 10365 10366 10368 10370 10372 10374 10377 10379 10381 10384 10386 10388 10390 10391 10393 10395 10397 10398 10399 10399 10400 10402
10337 10335 10332 10330 10328 10326 10324 10322 10320 10319 10318 10316 10314 10312 10310 10309 10306 10304 10303 10302 10301 10299 10298 10297 10297 10295 10294 10294 10294 10293 10292 10293 10293 10293 10293 10295 10296 10299 10300 10302 10303 10305 10306 10307 10310 10313 10316 10318 10321 10322 10323 10326 10330 10333 10335 10337 10339 10341 10343 10345 10348 10350 10352 10355 10357 10359 10361 10363 10365 10366 10368 10370 10372 10375 10377 10379 10382 10384 10385 10387 10389 10390 10392 10392 10393 10393 10394
10330 10328 10325 10323 10321 10319 10318 10316 10314 10313 10312 10310 10307 10305 10304 10302 10301 10299 10298 10297 10295 10294 10293 10292 10291 10290 10289 10289 10289 10288 10288 10288 10289 10288 10288 10290 10292 10293 10295 10296 10298 10300 10301 10302 10305 10308 10311 10313 10315 10315 10317 10321 10325 10328 10330 10332 10334 10336 10338 10340 10342 10344 10346 10348 10350 10352 10355 10357 10358 10359 10361 10363 10365 10368 10370 10373 10375 10377 10379 10380 10381 10383 10384 10385 10386 10387 10388
10322 10320 10318 10317 10315 10313 10311 10310 10308 10306 10305 10303 10301 10299 10298 10296 10295 10294 10293 10291 10290 10289 10288 10287 10286 10284 10283 10284 10285 10284 10283 10283 10283 10283 10284 10285 10287 10288 10289 10291 10293 10295 10297 10298 10300 10303 10305 10307 10309 10310 10312 10316 10320 10323 10326 10328 10330 10331 10332 10334 10336 10338 10340 10342 10344 10346 10348 10349 10351 10352 10354 10357 10359 10361 10364 10366 10368 10370 10372 10373 10374 10375 10376 10377 10378 10379 10380
10314 10312 10310 10309 10308 10306 10305 10304 10302 10300 10298 10296 10294 10292 10292 10291 10290 10289 10287 10286 10284 10283 10282 10281 10280 10279 10278 10279 10280 10279 10278 10278 10278 10278 10279 10280 10282 10282 10284 10286 10288 10290 10291 10293 10296 10299 10301 10302 10303 10305 10307 10310 10314 10318 10321 10322 10323 10324 10326 10328 10330 10332 10335 10337 10338 10340 10341 10342 10344 10346 10348 10350 10353 10355 10357 10359 10361 10362 10364 10366 10367 10368 10369 10370 10371 10372 10373
10306 10303 10302 10301 10299 10298 10297 10297 10295 10293 10291 10290 10288 10286 10285 10285 10284 10284 10282 10280 10279 10278 10277 10276 10275 10273 10273 10274 10275 10274 10273 10273 10274 10274 10274 10275 10276 10277 10279 10281 10283 10284 10286 10289 10292 10295 10296 10297 10298 10299 10302 10305 10309 10312 10314 10315 10316 10318 10320 10322 10324 10327 10329 10331 10333 10334 10335 10336 10337 10339 10342 10344 10346 10348 10350 10351 10353 10355 10357 10358 10360 10361 10361 10362 10364 10365 10366
10298 10295 10294 10293 10291 10290 10289 10288 10287 10285 10285 10283 10281 10280 10279 10278 10278 10278 10276 10274 10273 10272 10271 10270 10269 10268 10268 10269 10269 10268 10268 10268 10269 10269 10270 10270 10271 10272 10274 10276 10278 10279 10281 10284 10288 10290 10292 10293 10293 10295 10298 10301 10303 10305 10306 10308 10310 10312 10314 10315 10318 10320 10322 10324 10326 10327 10328 10329 10331 10333 10336 10338 10340 10341 10343 10345 10346 10348 10349 10351 10352 10353 10354 10356 10357 10358 10358
10289 10287 10286 10285 10284 10282 10281 10280 10279 10278 10278 10277 10275 10274 10273 10272 10272 10272 10271 10269 10267 10266 10265 10265 10264 10263 10263 10263 10263 10263 10263 10263 10263 10264 10264 10264 10265 10267 10269 10272 10273 10274 10276 10279 10283 10286 10288 10288 10288 10290 10293 10296 10298 10299 10300 10302 10304 10305 10307 10308 10310 10313 10315 10317 10319 10320 10321 10323 10325 10327 10329 10331 10332 10334 10336 10338 10339 10341 10343 10344 10345 10346 10347 10348 10349 10350 10351
10280 10279 10278 10278 10276 10275 10274 10272 10271 10271 10271 10270 10269 10267 10266 10265 10266 10266 10264 10262 10261 10261 10259 10259 10258 10258 10257 10258 10258 10258 10259 10258 10257 10257 10258 10259 10260 10263 10265 10266 10267 10268 10271 10276 10280 10283 10283 10283 10283 10285 10287 10289 10291 10293 10294 10296 10298 10299 10300 10302 10304 10306 10308 10310 10311 10312 10314 10316 10318 10321 10322 10324 10325 10327 10329 10330 10332 10334 10335 10336 10337 10338 10339 10340 10341 10342 10343
10272 10271 10270 10269 10268 10267 10266 10264 10263 10263 10264 10264 10262 10261 10259 10259 10260 10260 10258 10256 10255 10255 10253 10253 10253 10252 10252 10252 10252 10253 10253 10253 10251 10252 10254 10255 10256 10257 10259 10260 10262 10264 10268 10273 10276 10278 10278 10278 10278 10278 10280 10282 10285 10287 10289 10290 10292 10293 10294 10296 10298 10299 10301 10303 10304 10305 10307 10309 10312 10314 10315 10317 10318 10320 10321 10323 10325 10327 10328 10329 10330 10331 10331 10332 10333 10333 10334
10263 10263 10262 10261 10260 10259 10258 10257 10255 10256 10257 10257 10255 10254 10252 10252 10253 10253 10251 10249 10249 10248 10247 10247 10246 10246 10246 10246 10247 10247 10248 10248 10247 10247 10249 10250 10251 10253 10254 10256 10258 10260 10264 10267 10270 10272 10272 10273 10272 10272 10273 10276 10279 10282 10283 10284 10285 10287 10289 10290 10292 10293 10295 10296 10297 10299 10301 10303 10305 10306 10308 10310 10311 10312 10314 10315 10317 10319 10320 10321 10322 10323 10324 10324 10325 10326 10326
10255 10255 10254 10253 10252 10251 10250 10249 10248 10248 10249 10249 10248 10247 10246 10246 10246 10246 10244 10243 10242 10242 10241 10240 10240 10240 10240 10241 10241 10242 10242 10243 10242 10243 10244 10246 10248 10249 10250 10251 10253 10255 10258 10261 10264 10266 10266 10266 10267 10267 10268 10270 10273 10275 10277 10278 10279 10281 10283 10285 10286 10287 10289 10290 10291 10293 10294 10296 10298 10299 10301 10302 10304 10305 10306 10308 10310 10311 10312 10313 10314 10315 10316 10317 10318 10318 10319
10248 10247 10245 10245 10245 10244 10242 10241 10241 10241 10241 10241 10241 10240 10238 10239 10239 10238 10237 10236 10236 10235 10234 10234 10234 10234 10234 10235 10235 10236 10236 10237 10237 10239 10240 10242 10243 10244 10244 10245 10247 10249 10253 10256 10259 10260 10261 10261 10262 10263 10264 10265 10266 10268 10271 10273 10274 10276 10278 10279 10280 10282 10283 10285 10286 10287 10288 10290 10292 10293 10294 10296 10297 10298 10299 10301 10302 10304 10305 10306 10307 10308 10309 10309 10310 10310 10311